This demonstration page uses our WeatherBlox Daily Observations layout. Learn more.

Left ArrowRight Arrow

Hourly Observations for August 9, 2015

Temp ( °F °C ) Dew Point ( °F °C ) Humidity (%) Winds ( mph kmh ) Pressure ( in mb ) Visibility ( mi km ) Precip ( " mm )
12:54 am 00:54 Cloudy 78 25.6 74 23.3 87 87 SE 12 19 29.79 1009 10 16.0934 0 0.0254
1:30 am 01:30 Cloudy with Thunderstorms 79 26 73 23 84 84 S 3 6 29.77 1008 10 16.0934 0 0
1:39 am 01:39 Cloudy with Thunderstorms 78 25.6 73 22.8 85 85 SSE 14 22 29.77 1008 10 16.0934 0 0
1:54 am 01:54 Cloudy with Thunderstorms 79 26.1 73 22.8 82 82 S 3 6 29.78 1008 10 16.0934 0 0
2:04 am 02:04 Cloudy with Nearby Thunderstorms 79 26 73 23 84 84 SSE 10 17 29.77 1008 10 16.0934 0 0
2:36 am 02:36 Mostly Cloudy 77 25 73 23 89 89 ESE 6 9 29.77 1008 10 16.0934 0 0
2:42 am 02:42 Mostly Cloudy 77 25 72 22.2 85 85 E 5 7 29.77 1008 10 16.0934 0 0
2:54 am 02:54 Mostly Cloudy 77 25 72 22.2 85 85 E 6 9 29.8 1009 10 16.0934 0 0
3:32 am 03:32 Cloudy 76 24.4 71 21.7 85 85 ESE 9 15 29.8 1009 10 16.0934 0 0
3:54 am 03:54 Cloudy 76 24.4 71 21.7 85 85 ESE 3 6 29.82 1010 10 16.0934 0 0
4:54 am 04:54 Cloudy 75 23.9 71 21.7 88 88 E 7 11 29.83 1010 10 16.0934 0 0
5:54 am 05:54 Cloudy 75 23.9 71 21.7 88 88 SSE 10 17 29.83 1010 10 16.0934 0 0
6:54 am 06:54 Sunny 75 23.9 71 21.7 88 88 WSW 5 7 29.85 1011 10 16.0934 0 0
7:54 am 07:54 Mostly Cloudy 76 24.4 70 21.1 82 82 NW 5 7 29.85 1011 10 16.0934 0 0
8:54 am 08:54 Cloudy 78 25.6 71 21.7 79 79 Calm 29.86 1011 10 16.0934 0 0
9:54 am 09:54 Mostly Cloudy 79 26.1 72 22.2 79 79 Calm 29.87 1011 10 16.0934 0 0
10:54 am 10:54 Mostly Cloudy 80 26.7 73 22.8 79 79 E 9 15 29.88 1012 10 16.0934 0 0
11:29 am 11:29 Cloudy 81 27.2 72 22.2 74 74 E 7 11 29.85 1011 10 16.0934 0 0
11:54 am 11:54 Cloudy 81 27.2 72 22.2 74 74 SE 6 9 29.88 1012 10 16.0934 0 0
12:52 pm 12:52 Partly Cloudy 84 29 73 23 70 70 SE 9 15 29.85 1011 10 16.0934 0 0
12:54 pm 12:54 Mostly Sunny 83 28.3 73 22.8 72 72 ESE 7 11 29.87 1012 10 16.0934 0 0
1:23 pm 13:23 Mostly Cloudy 84 28.9 74 23.3 72 72 SE 9 15 29.85 1011 10 16.0934 0 0
1:54 pm 13:54 Mostly Cloudy 85 29.4 74 23.3 70 70 SSE 8 13 29.87 1011 10 16.0934 0 0
2:54 pm 14:54 Cloudy 86 30 74 23.3 67 67 SSE 8 13 29.86 1011 10 16.0934 0 0
3:44 pm 15:44 Cloudy 84 29 73 23 70 70 SSW 3 6 29.85 1011 10 16.0934 0 0
3:54 pm 15:54 Cloudy 85 29.4 74 23.3 70 70 S 6 9 29.86 1011 10 16.0934 0 0
4:54 pm 16:54 Mostly Sunny 88 31.1 74 23.3 63 63 Calm 29.86 1011 10 16.0934 0 0
5:54 pm 17:54 Mostly Cloudy 88 31.1 74 23.3 63 63 VRB 5 7 29.85 1011 10 16.0934 0 0
6:54 pm 18:54 Cloudy 88 31.1 74 23.3 63 63 E 3 6 29.85 1011 10 16.0934 0 0
7:54 pm 19:54 Mostly Sunny 86 30 74 23.3 67 67 ESE 6 9 29.85 1011 9 14.48406 0 0
8:54 pm 20:54 Clear 83 28.3 75 23.9 77 77 SSE 3 6 29.87 1012 10 16.0934 0 0
9:54 pm 21:54 Clear 81 27.2 75 23.9 82 82 SSE 5 7 29.88 1012 9 14.48406 0 0
10:54 pm 22:54 Clear 79 26.1 75 23.9 88 88 SSW 3 6 29.9 1012 8 12.87472 0 0
11:54 pm 23:54 Mostly Cloudy 80 26.7 75 23.9 85 85 NNW 14 22 29.92 1013 8 12.87472 0 0

Powered by AerisWeather